SCP
0 0 0 0 0 0 0 0 0 0 0 0 0 0 0 0 0 0 0 0 0 0 0 0 0 0 0 0 0 0 0 0 0 0 0 0 0 0 0 0 0 0 0
0 0 0 0 0 0 0 0 0 0 0 0 0 0 0 0 0 0 0 0 0 0 0 0 0 0 0 0 0 0 0 0 0 0 0 0 0 0 0 0 0 0 0
0 0 0 0 0 0 0 0 0 0 0 0 0 0 0 0 0 0 0 0 0 0 0 0 0 0 0 0 0 0 0 0 0 0 0 0 0 0 0 0 0 0 0
0 0 0 0 0 0 0 0 0 0 0 0 0 0 0 0 0 0 0 0 0 0 0 0 0 0 0 0 0 0 0 0 0 0 0 0 0 0 0 0 0 0 0
0 0 0 0 0 0 0 0 0 0 0 0 0 0 0 0 0 0 0 0 0 0 0 0 0 0 0 0 0 0 0 0 0 0 0 0 0 0 0 0 0 0 0
0 0 0 0 0 0 0 0 0 0 0 0 0 0 0 0 0 0 0 0 0 0 0 0 0 0 0 0 0 0 0 0 0 0 0 0 0 0 0 0 0 0 0
0 0 0 0 0 0 0 0 0 0 0 0 0 0 0 0 0 0 0 0 0 0 0 0 0 0 0 0 0 0 0 0 0 0 0 0 0 0 0 0 0 0 0
0 0 0 0 0 0 0 0 0 0 0 0 0 0 0 0 0 0 0 0 0 0 0 0 0 0 0 0 0 0 0 0 0 0 0 0 0 0 0 0 0 0 0
0 0 0 0 0 0 0 0 0 0 0 0 0 0 0 0 0 0 0 0 0 0 0 0 0 0 0 0 0 0 0 0 0 0 0 0 0 0 0 0 0 0 0
0 0 0 0 0 0 0 0 0 0 0 0 0 0 0 0 0 0 0 0 0 0 0 0 0 0 0 0 0 0 0 0 0 0 0 0 0 0 0 0 0 0 0
0 0 0 0 0 0 0 0 0 0 0 0 0 0 0 0 0 0 0 0 0 -0 -0 0 0 0 0 0 0 0 0 0 0 0 0 0 0 0 0 0 0 0 0
0 0 0 0 0 0 0 0 0 0 0 0 0 0 0 0 0 0 0 -0 -0 -0 -0 0 0 0 0 0 0 0 0 0 0 0 0 0 0 0 0 0 0 0 0
0 0 0 0 0 0 0 0 0 0 0 0 0 0 0 0 0 -0 -0 -0 -0 -0 -0 0 0 0 0 0 0 0 0 0 0 0 0 0 0 0 0 0 0 0 0
0 0 0 0 0 0 0 0 0 0 0 0 0 0 0 0 0 0 -0 -0 -0 -0 0 0 0 0 0 0 0 0 0 0 0 0 0 0 0 0 0 0 0 0 0
0 0 0 0 0 0 0 0 0 0 0 0 0 0 0 0 0 0 0 0 0 0 0 -0 -0 -0 0 0 0 0 0 0 0 0 0 0 0 0 0 0 0 0 0
0 0 0 0 0 0 0 0 0 0 0 0 0 0 0 0 0 0 0 0 0 0 0 -0 -0 -0 0 0 0 0 0 0 0 0 0 0 0 0 0 0 0 0 0
0 0 0 0 0 0 0 0 0 0 0 0 0 0 0 0 0 0 0 0 0 0 0 0 -0 0 0 0 0 0 0 0 0 0 0 0 0 0 0 0 0 0 0
0 0 0 -0 0 0 0 0 0 0 0 0 0 0 0 0 0 0 0 0 0 0 0 0 0 0 0 0 0 0 0 0 0 0 0 0 0 0 0 0 0 0 0
0 0 0 0 0 0 0 0 0 0 0 0 0 0 0 0 0 0 0 0 0 0 0 0 0 0 0 0 0 0 0 0 0 0 0 0 0 0 0 0 0 0 0
0 0 0 0 0 0 0 0 0 0 0 0 0 0 0 0 0 0 0 0 0 0 0 0 0 0 0 0 0 0 0 0 0 0 0 0 0 0 0 0 0 0 0
-0 0 0 0 0 0 0 0 0 0 0 0 0 0 0 -0 0 0 0 0 0 0 0 0 0 0 0 0 0 0 0 0 0 0 0 0 0 0 0 0 0 0 0
-0 0 0 0 0 0 0 0 0 0 0 0 0 0 0 0 0 0 0 0 0 0 0 0 0 0 0 0 0 0 0 0 0 0 0 0 0 0 0 0 0 0 0
0 0 0 0 0 0 0 0 0 0 0 0 0 0 0 0 0 0 0 0 0 0 0 0 0 0 0 0 0 0 0 0 0 0 0 0 0 0 0 0 0 0 0
0 0 0 0 0 0 0 0 0 0 0 0 0 0 0 0 0 0 0 0 0 0 0 0 0 0 0 0 0 0 0 0 0 0 0 0 0 0 0 0 0 0 0
0 0 0 0 0 0 0 0 0 0 0 0 0 0 0 0 0 0 0 0 0 0 0 0 0 0 0 0 0 0 0 0 0 0 0 0 0 0 0 0 0 0 0
0 0 0 0 0 0 0 0 0 0 0 0 0 0 0 0 0 0 0 0 0 0 0 0 0 0 -0 0 0 0 0 0 0 0 0 0 0 0 0 0 0 0 0
Wind_Speed
1 1 5 9 10 11 12 13 12 13 13 13 13 13 12 12 12 11 11 10 10 9 9 8 8 8 8 8 7 7 7 7 6 6 6 6 5 5 5 5 5 3 4
2 2 7 9 11 12 12 13 13 13 13 13 13 12 12 11 11 11 10 10 9 9 8 8 8 8 8 7 7 6 6 6 6 6 6 5 5 4 4 4 4 3 4
4 3 5 9 11 12 12 12 13 13 12 12 12 11 11 10 10 10 10 9 9 8 8 8 7 7 7 6 6 6 6 5 5 6 5 3 2 3 4 4 4 4 4
5 4 5 10 11 12 12 12 12 12 11 11 11 11 11 10 9 9 9 9 8 8 7 7 7 6 6 6 6 6 6 5 5 5 3 2 2 3 3 3 4 4 3
5 4 6 11 11 11 12 11 11 11 11 11 10 10 10 9 9 9 8 8 7 7 7 7 6 6 6 6 6 6 6 6 6 5 3 2 2 2 3 3 3 3 3
5 4 6 10 11 11 11 10 10 10 10 10 10 9 9 8 8 8 8 7 7 7 7 7 7 6 6 6 6 6 6 6 5 3 3 2 2 3 3 3 3 3 3
4 4 5 9 10 10 10 10 10 10 9 9 9 9 8 8 8 7 7 7 7 7 7 7 7 6 6 6 6 6 6 5 3 2 2 2 1 3 3 2 2 2 3
5 4 4 8 9 9 9 9 9 8 8 8 8 8 8 8 7 6 6 6 6 6 6 6 6 6 6 6 6 6 6 5 3 2 1 1 2 3 3 2 2 2 2
4 4 4 4 5 7 8 8 8 7 7 7 7 7 7 7 7 6 6 6 6 6 7 6 6 6 6 6 6 7 7 6 3 2 2 1 2 3 2 2 3 3 2
3 3 3 3 4 4 4 6 6 7 6 6 6 7 7 7 7 7 6 6 6 7 7 7 7 6 6 6 6 6 7 5 3 2 1 2 3 3 3 2 3 3 3
2 2 2 3 3 3 3 4 5 6 7 7 6 7 6 4 4 4 6 6 7 7 7 7 7 7 7 6 7 7 5 2 2 2 1 3 2 2 3 2 2 3 3
1 1 1 2 2 2 3 3 3 3 4 4 3 4 3 3 4 5 7 9 8 8 8 8 8 7 6 3 5 6 2 2 2 2 2 4 2 2 2 2 3 3 3
1 1 1 1 2 2 2 2 2 2 3 3 4 4 3 3 3 4 3 4 5 6 4 6 5 4 3 3 2 2 2 2 2 2 2 4 3 3 3 3 3 3 3
2 1 1 2 2 3 3 2 2 2 2 3 3 4 3 2 3 3 3 3 3 2 3 3 2 3 4 3 3 3 3 2 2 2 2 5 4 4 4 4 4 4 4
2 2 1 2 2 3 3 2 3 2 3 2 3 3 3 2 3 3 2 3 3 3 3 3 3 4 4 4 4 4 4 4 4 3 3 6 6 5 5 5 5 5 5
3 2 2 3 3 4 3 3 2 2 2 3 3 3 3 2 2 2 3 3 3 3 2 2 3 3 3 3 4 4 4 4 4 4 4 5 8 8 7 6 6 6 6
3 3 3 3 4 4 4 3 3 2 3 3 2 3 3 3 3 3 3 3 3 3 3 3 3 3 4 4 5 5 4 4 4 5 4 4 4 7 8 7 7 7 7
4 4 3 4 4 4 4 3 3 3 3 3 2 3 4 4 3 3 3 3 3 3 3 3 3 3 4 4 4 4 4 4 5 5 5 4 4 4 6 9 9 8 8
4 4 4 4 5 4 4 4 4 4 4 3 3 3 4 4 4 3 3 2 3 3 3 3 3 3 3 3 3 4 4 4 4 5 5 5 5 4 4 6 9 9 9
4 4 5 5 4 5 4 4 3 4 4 3 3 4 4 4 4 4 3 4 3 3 3 3 3 3 2 2 3 4 4 4 4 5 5 4 5 5 5 5 4 6 10
4 4 4 5 4 3 3 3 3 2 2 3 3 4 4 4 4 4 3 4 4 3 3 3 2 4 3 2 3 3 4 4 5 4 4 4 5 5 5 5 4 4 4
4 3 4 4 4 3 3 2 2 2 1 1 2 4 5 5 4 4 4 3 3 3 5 4 3 2 3 3 2 2 3 4 4 5 4 4 5 4 5 6 5 4 4
4 4 4 4 4 3 3 3 3 3 3 3 3 3 4 4 4 4 4 3 4 3 3 4 3 3 2 3 3 3 2 0 2 3 4 4 4 4 4 4 5 5 5
4 3 4 4 4 3 4 4 4 3 2 1 1 1 3 4 5 4 4 4 4 3 4 3 3 2 3 2 2 3 2 2 1 2 3 3 4 4 5 5 5 5 5
4 4 4 4 4 3 4 5 5 3 2 1 1 3 3 4 5 4 4 4 4 3 4 4 4 4 3 2 2 1 2 2 2 2 1 3 3 3 3 4 4 4 5
4 4 4 5 3 3 4 4 5 5 4 3 2 2 2 2 3 4 4 4 4 3 4 3 4 4 3 4 3 3 2 1 1 1 1 1 2 3 3 3 4 4 4
Wind_Direction
15 66 107 103 101 101 101 100 98 100 100 101 99 97 96 96 95 94 91 88 86 83 82 82 81 81 80 79 77 75 74 73 73 75 75 71 72 78 86 90 81 69 85
127 100 107 106 105 103 102 101 99 97 97 97 96 96 96 95 93 90 88 87 85 81 78 78 77 76 76 76 77 74 72 73 75 71 68 61 63 77 86 89 84 85 86
99 91 105 109 106 104 102 101 99 98 97 97 96 95 93 91 90 88 86 84 80 77 74 72 73 73 71 70 71 67 67 71 72 69 58 35 31 71 81 80 81 88 84
101 95 107 110 105 103 101 100 99 99 98 96 94 92 90 87 84 83 82 80 76 73 70 66 63 64 65 64 63 62 62 66 69 64 47 24 6 70 78 74 67 80 84
92 90 109 108 105 103 102 101 102 101 98 94 91 89 86 84 82 80 78 75 70 67 64 59 57 57 58 57 58 61 60 63 62 55 39 24 360 70 77 76 65 76 80
92 92 105 106 107 105 103 102 101 99 96 91 87 83 80 79 80 79 74 70 65 60 56 53 51 51 50 51 54 57 58 62 58 49 37 20 11 57 64 65 62 77 79
95 89 100 105 105 105 103 101 97 93 89 85 80 77 72 70 69 67 65 62 58 56 51 48 44 44 46 47 52 55 58 66 69 55 37 17 359 47 63 58 59 68 76
98 85 86 99 102 102 98 95 93 90 85 79 73 68 66 65 62 60 59 54 48 46 43 39 36 36 39 43 49 49 51 55 56 49 32 2 355 41 57 56 60 55 64
88 80 65 65 75 84 88 88 85 81 77 70 62 59 57 53 48 47 49 43 40 37 36 34 32 36 39 42 48 49 50 54 48 25 22 352 352 28 43 54 51 49 51
78 70 64 56 53 50 53 66 69 65 60 55 49 49 47 40 33 30 31 33 37 38 35 34 31 30 32 35 43 45 46 45 31 14 360 335 348 21 37 50 50 45 34
82 62 62 53 48 43 38 47 46 48 45 44 39 42 42 31 21 17 17 28 32 33 37 36 35 38 35 33 36 38 39 31 16 2 340 337 347 8 29 44 45 40 23
125 67 78 65 50 44 47 45 33 40 35 39 40 42 42 37 25 33 24 32 35 39 38 39 43 42 39 28 27 32 28 20 16 353 345 353 1 10 23 38 36 36 25
162 102 73 85 68 68 61 52 40 37 33 37 40 44 49 43 31 32 26 20 23 32 29 32 36 32 34 30 26 27 27 27 11 357 349 6 15 20 30 34 33 35 34
121 103 65 86 83 75 72 61 54 51 44 42 36 42 51 47 37 28 29 17 22 19 25 28 28 27 32 33 41 40 34 29 19 10 1 16 20 24 33 34 30 32 37
125 109 85 96 103 94 80 69 68 60 60 56 45 41 56 61 46 34 26 20 19 20 29 29 28 28 28 29 37 46 37 30 25 24 13 24 30 30 35 37 35 38 36
132 125 108 86 97 100 93 89 79 68 68 64 52 45 54 62 59 49 35 23 18 16 25 35 35 36 33 37 38 39 41 37 32 30 26 21 31 34 39 40 40 39 37
139 129 126 112 94 94 96 92 79 66 68 61 47 43 50 55 61 60 48 30 13 14 29 38 36 39 41 42 38 35 39 37 37 33 29 26 20 27 36 41 40 39 37
135 125 118 115 102 97 93 88 76 66 65 54 44 43 45 49 57 59 49 30 13 25 34 42 38 41 38 40 39 31 33 33 34 35 34 28 26 22 24 35 37 36 37
136 123 106 104 104 101 91 82 73 64 55 43 40 39 40 46 51 61 52 31 26 37 33 42 44 47 42 34 46 43 33 33 28 33 32 27 25 24 23 28 33 31 32
120 115 111 104 102 102 90 79 65 53 41 36 37 33 36 42 49 57 53 36 37 46 34 37 50 45 48 30 51 49 35 31 34 32 27 25 25 25 28 31 25 19 26
116 116 119 118 117 116 105 96 85 62 32 25 26 33 35 40 45 54 52 40 40 50 40 37 51 49 34 16 50 29 15 29 40 29 19 23 24 20 27 31 28 25 18
143 138 130 134 135 130 121 115 112 109 72 39 14 30 31 35 36 52 53 48 43 50 41 35 45 55 33 28 71 70 19 2 6 16 16 25 21 18 25 28 27 26 21
155 161 151 146 135 125 116 102 84 61 43 29 19 15 11 26 37 45 51 56 49 53 51 37 40 67 62 28 45 101 106 284 327 345 10 19 17 21 15 16 27 23 22
174 161 143 139 130 128 126 120 120 116 107 50 9 11 16 28 36 40 48 54 54 52 53 40 45 53 78 53 30 43 87 136 113 349 343 359 13 21 13 15 18 15 15
160 152 145 130 121 127 130 131 122 112 112 83 55 46 31 24 30 36 43 51 51 50 53 51 47 51 59 73 61 49 55 52 65 104 352 340 352 357 7 7 8 9 9
144 140 137 129 124 131 131 130 131 131 124 105 78 61 33 21 21 27 39 46 50 51 53 55 56 59 57 64 60 57 67 69 48 80 87 346 339 327 348 4 11 3 1